Find Starlink 34710

NORAD ID: 65365 Int'l Des: 2025-190 Owner: SPXS Country: US Constellation: starlink operational
LEOCIRCULAR

当前视图

正在加载3D地球...

About Starlink 34710

Starlink 34710 (NORAD 65365) is a starlink constellation satellite (v2 mini) launched Aug 28, 2025 by SPXS of US. It operates in LEO, CIRCULAR orbit with a mass of 575.00 kg.

关于 Starlink 34710

正在加载描述...

即将过境

Passes for default location (London). Set your location on the main map for personalized predictions.

高度历史

Loading altitude history...

两行轨道根数

1 65365U 25190Q 26194.57163641 .00091241 00000-0 30610-2 0 9996
2 65365 53.1618 303.8054 0001222 53.1733 306.9379 15.30137475 48558
Epoch: Jul 13, 2026 • Age: 21 hours

当前状态

高度 475.3 km
远地点 / 近地点 N/A
速度 7.63 km/s
星下点 13.41°N, 15.07°E
发射日期 Aug 28, 2025
运行时间 0.8 years
类型 internet

技术详情

分类 Payload
质量 575.00 kg
干质量 530.00 kg
总质量 575.00 kg
长度 0.30 m
直径 4.10 m
跨度 29.00 m
形状 Box + pan
制造商 SPXS
平台类型 Starlink V2MO
阶段状态 In Orbit
所有者/国家 SPXS/US

Most Searched